Location: Unspecified
(0.0000°N, 0.0000°E)
Time: 01:56:03
(UTC+00:00)

Fuji - Pass Details

Date: 06 December 2022
Orbit: 1479 x 1496 km, 50.0° (Epoch: 26 January)

Event Time Altitude Azimuth Distance (km) Brightness Sun altitude
Rises 04:56:06 0° 213° (SSW) 4,623 ? -12.6°
Reaches altitude 10° 04:59:08 10° 210° (SSW) 3,641 ? -11.9°
Maximum altitude 05:08:15 74° 126° (SE) 1,544 ? -9.8°
Drops below altitude 10° 05:17:19 10° 43° (NE) 3,621 ? -7.8°
Sets 05:20:19 0° 41° (NE) 4,597 ? -7.1°
